This demonstration page uses our WeatherBlox Daily Observations layout. Learn more.

Left ArrowRight Arrow

36.17497, -115.13722

Hourly Observations for December 22, 2020

Temp ( °F °C ) Dew Point ( °F °C ) Humidity (%) Winds ( mph kmh ) Pressure ( in mb ) Visibility ( mi km ) Precip ( " mm )
12:53 am 00:53 Clear 46 7.8 28 -2.2 50 50 NNW 6 9 29.97 1015 10 16.0934 0 0
1:53 am 01:53 Clear 43 6.1 27 -2.8 53 53 Calm 29.97 1015 10 16.0934 0 0
2:53 am 02:53 Clear 43 6.1 27 -2.8 53 53 NNW 6 9 29.96 1015 10 16.0934 0 0
3:53 am 03:53 Clear 45 7.2 27 -2.8 49 49 WNW 5 7 29.94 1014 10 16.0934 0 0
4:53 am 04:53 Clear 44 6.7 27 -2.8 51 51 W 5 7 29.92 1013 10 16.0934 0 0
5:53 am 05:53 Clear 44 6.7 26 -3.3 49 49 VRB 3 6 29.9 1013 10 16.0934 0 0
6:53 am 06:53 Sunny 45 7.2 25 -3.9 46 46 NNW 15 24 29.93 1014 10 16.0934 0 0
7:53 am 07:53 Sunny 49 9.4 27 -2.8 43 43 NNE 5 7 29.94 1014 10 16.0934 0 0
8:53 am 08:53 Sunny 51 10.6 27 -2.8 39 39 Calm 29.96 1015 10 16.0934 0 0
9:53 am 09:53 Sunny 58 14.4 24 -4.4 27 27 NE 6 9 29.99 1016 10 16.0934 0 0
10:53 am 10:53 Sunny 61 16.1 24 -4.4 24 24 ENE 5 7 29.99 1016 10 16.0934 0 0
11:53 am 11:53 Sunny 62 16.7 25 -3.9 24 24 ESE 6 9 29.97 1015 10 16.0934 0 0
12:53 pm 12:53 Sunny 66 18.9 25 -3.9 21 21 Calm 29.94 1014 10 16.0934 0 0
1:53 pm 13:53 Sunny 73 22.8 11 -11.7 9 9 NW 12 19 29.93 1014 10 16.0934 0 0
2:53 pm 14:53 Sunny 72 22.2 7 -13.9 8 8 NNW 20 31 29.92 1013 10 16.0934 0 0
3:53 pm 15:53 Sunny 70 21.1 5 -15 8 8 NW 12 19 29.93 1014 10 16.0934 0 0
4:53 pm 16:53 Clear 64 17.8 6 -14.4 10 10 WNW 6 9 29.95 1014 10 16.0934 0 0
5:53 pm 17:53 Clear 65 18.3 2 -16.7 8 8 NNW 10 17 29.96 1014 10 16.0934 0 0
6:53 pm 18:53 Clear 62 16.7 5 -15 10 10 NW 14 22 29.97 1015 10 16.0934 0 0
7:53 pm 19:53 Clear 61 16.1 4 -15.6 10 10 NNW 15 24 29.99 1016 10 16.0934 0 0
8:53 pm 20:53 Clear 61 16.1 3 -16.1 10 10 NW 15 24 30.02 1017 10 16.0934 0 0
9:53 pm 21:53 Clear 60 15.6 1 -17.2 9 9 NNW 18 30 30.04 1017 10 16.0934 0 0
10:53 pm 22:53 Clear 54 12.2 3 -16.1 12 12 NNW 16 26 30.07 1018 10 16.0934 0 0
11:53 pm 23:53 Clear 55 12.8 1 -17.2 11 11 NNW 21 33 30.08 1019 10 16.0934 0 0

Powered by AerisWeather